Back to catalog

COSMOS 1275 DEB

AlivePO
NORAD 12661·DEBRIS·🇷🇺 Russia

Launched Jun 4, 1981 from Plesetsk Cosmodrome

Loading…

Next Passes (next 24 hours)

TLE

FreshSource: Space-Track

Epoch: Sep 14, 2026, 14:54 UTC

1 12661U 81053R   26257.62089419  .00000737  00000-0  75203-3 0  9991
2 12661  82.8013 198.1306 0119825 324.8793 152.8329 13.72440790242274

Track COSMOS 1275 DEB in real time with AllMySat

Download on the App Store